VLG1KW EGFF-LEMG

Flight info

Callsign VLG1KW
Flight time N/A
Altitude 34000
Route EXMOR N92 DAWLY DCT BHD DCT SALCO DCT NOVAN/N0450F350 DCT DELOG DCT CRISA/N0448F370 DCT VULPE
Aircraft A320/M-SDE3FGHIRWY/LB1

Departure

Time 2026-05-01 14:09
Airport Cardiff International Airport (EGFF)

Arrival

Time N/A
Airport Málaga-Costa del Sol Airport (LEMG)
Time Latitude Longitude Altitude Speed Heading
2026-05-01 14:09 51.39879 -3.56381 6422 ft 260 kts 176°
2026-05-01 14:09 51.38137 -3.55592 7235 ft 264 kts 153°
2026-05-01 14:09 51.36553 -3.54086 8083 ft 266 kts 151°
2026-05-01 14:10 51.34968 -3.52535 8890 ft 268 kts 151°
2026-05-01 14:10 51.33375 -3.50972 9703 ft 270 kts 151°
2026-05-01 14:10 51.31770 -3.49403 10437 ft 275 kts 151°
2026-05-01 14:10 51.30060 -3.47744 10642 ft 298 kts 151°
2026-05-01 14:11 51.28213 -3.45966 10797 ft 321 kts 151°
2026-05-01 14:11 51.24267 -3.42179 11882 ft 337 kts 151°
2026-05-01 14:11 51.22250 -3.40234 12597 ft 338 kts 151°
2026-05-01 14:12 51.20294 -3.38403 13960 ft 316 kts 156°
2026-05-01 14:12 51.18306 -3.37158 15083 ft 301 kts 166°
2026-05-01 14:12 51.16293 -3.36550 15839 ft 297 kts 176°
2026-05-01 14:12 51.14199 -3.36575 16497 ft 298 kts 187°
2026-05-01 14:13 51.12133 -3.36960 17109 ft 300 kts 187°
2026-05-01 14:13 51.10758 -3.37211 17518 ft 302 kts 186°
2026-05-01 14:13 51.07953 -3.37708 18327 ft 305 kts 186°
2026-05-01 14:13 51.05834 -3.38077 18865 ft 307 kts 186°
2026-05-01 14:14 51.03726 -3.38442 19389 ft 310 kts 186°
2026-05-01 14:14 51.01580 -3.38810 19927 ft 311 kts 186°
2026-05-01 14:14 50.99424 -3.39177 20476 ft 312 kts 186°
2026-05-01 14:14 50.97257 -3.39548 21016 ft 314 kts 186°
2026-05-01 14:15 50.95078 -3.39925 21543 ft 316 kts 186°
2026-05-01 14:15 50.92891 -3.40307 22076 ft 318 kts 186°
2026-05-01 14:15 50.90685 -3.40692 22605 ft 319 kts 186°
2026-05-01 14:15 50.88469 -3.41075 23122 ft 321 kts 185°
2026-05-01 14:16 50.86241 -3.41458 23639 ft 323 kts 185°
2026-05-01 14:16 50.83999 -3.41845 24079 ft 325 kts 185°
2026-05-01 14:16 50.81747 -3.42232 24486 ft 327 kts 185°
2026-05-01 14:16 50.79503 -3.42890 24884 ft 331 kts 199°
2026-05-01 14:17 50.77499 -3.44720 25271 ft 339 kts 219°
2026-05-01 14:17 50.76038 -3.47685 25634 ft 350 kts 240°
2026-05-01 14:17 50.75396 -3.51437 26002 ft 364 kts 263°
2026-05-01 14:17 50.75786 -3.55444 26371 ft 379 kts 288°
2026-05-01 14:18 50.77239 -3.58974 26707 ft 393 kts 313°
2026-05-01 14:18 50.79545 -3.61353 27050 ft 403 kts 339°
2026-05-01 14:18 50.82315 -3.62156 27395 ft 408 kts 358°
2026-05-01 14:18 50.84197 -3.62115 27614 ft 411 kts
2026-05-01 14:19 50.88016 -3.61418 28114 ft 415 kts
2026-05-01 14:19 50.90870 -3.60641 28504 ft 417 kts 12°
2026-05-01 14:19 50.93582 -3.59087 28880 ft 415 kts 35°
2026-05-01 14:19 50.95692 -3.56070 29216 ft 407 kts 59°
2026-05-01 14:20 50.96864 -3.52084 29526 ft 396 kts 84°
2026-05-01 14:20 50.95905 -3.43997 30123 ft 372 kts 132°
2026-05-01 14:20 50.94011 -3.41321 30380 ft 364 kts 156°
2026-05-01 14:21 50.91618 -3.40245 30625 ft 360 kts 180°
2026-05-01 14:21 50.89123 -3.40538 30997 ft 355 kts 187°
2026-05-01 14:21 50.86714 -3.41061 31717 ft 347 kts 188°
2026-05-01 14:22 50.81887 -3.42090 32171 ft 356 kts 187°
2026-05-01 14:22 50.79408 -3.42540 32300 ft 362 kts 186°
2026-05-01 14:22 50.76879 -3.42976 32431 ft 368 kts 186°
2026-05-01 14:22 50.74314 -3.43410 32566 ft 373 kts 186°
2026-05-01 14:23 50.71712 -3.43855 32700 ft 379 kts 186°
2026-05-01 14:23 50.69075 -3.44317 32834 ft 384 kts 186°
2026-05-01 14:23 50.66404 -3.44795 32969 ft 389 kts 186°
2026-05-01 14:23 50.63707 -3.45282 33104 ft 393 kts 186°
2026-05-01 14:24 50.60974 -3.45770 33238 ft 397 kts 186°
2026-05-01 14:24 50.58212 -3.46259 33367 ft 401 kts 186°
2026-05-01 14:24 50.55424 -3.46749 33502 ft 405 kts 186°
2026-05-01 14:24 50.52608 -3.47232 33646 ft 408 kts 186°